N0HOT Weather Reports


Display with metric or nautical units.
time (UTC)temp
F
wind
direction
speed
MPH
gust
MPH
rain 1hr
in
rain 24hr
in
rain mn
in
humidity
%
barometer
mb
20260507020701 41 18 0.0 0.0 0.00 0.00 0.00 49 1017.3
20260507020156 41 18 1.0 1.0 0.00 0.00 0.00 49 1016.7
20260507015655 41 18 0.0 0.0 0.00 0.00 0.00 48 1017.0
20260507015151 42 18 0.0 0.0 0.00 0.00 0.00 48 1016.7
20260507014648 42 18 0.0 0.0 0.00 0.00 0.00 48 1016.7
20260507014144 42 18 0.0 0.0 0.00 0.00 0.00 47 1016.7
20260507013641 43 18 0.0 0.0 0.00 0.00 0.00 46 1016.7
20260507013138 43 18 0.0 0.0 0.00 0.00 0.00 45 1016.7
20260507012636 43 18 0.0 0.0 0.00 0.00 0.00 44 1016.7
20260507012131 44 18 0.0 0.0 0.00 0.00 0.00 43 1016.3
20260507011630 44 18 0.0 0.0 0.00 0.00 0.00 44 1016.3
20260507011125 44 18 0.0 0.0 0.00 0.00 0.00 43 1016.7
20260507010620 45 18 0.0 1.0 0.00 0.00 0.00 42 1016.7
20260507010116 45 2 0.0 0.0 0.00 0.00 0.00 41 1016.7
20260507005614 45 21 1.0 1.0 0.00 0.00 0.00 41 1016.3
20260507005110 46 17 0.0 0.0 0.00 0.00 0.00 42 1016.7
20260507004607 46 26 0.0 0.0 0.00 0.00 0.00 41 1016.3
20260507004104 46 359 1.0 1.0 0.00 0.00 0.00 41 1016.3
20260507003600 46 349 2.0 2.0 0.00 0.00 0.00 39 1016.3
20260507003055 46 359 1.0 1.0 0.00 0.00 0.00 38 1016.7
20260507002552 46 47 1.0 1.0 0.00 0.00 0.00 39 1016.7
20260507002048 46 285 3.0 3.0 0.00 0.00 0.00 38 1016.3
20260507001545 46 348 1.0 2.0 0.00 0.00 0.00 38 1016.3
20260507001042 46 55 0.0 0.0 0.00 0.00 0.00 40 1016.3
20260507000538 46 1 4.0 7.0 0.00 0.00 0.00 39 1016.3
20260507000034 46 325 2.0 3.0 0.00 0.00 0.00 39 1016.3
20260506235531 46 286 4.0 4.0 0.00 0.00 0.00 39 1016.3
20260506235027 46 119 2.0 3.0 0.00 0.00 0.00 41 1016.3
20260506234525 46 290 4.0 6.0 0.00 0.00 0.00 38 1016.3
20260506234016 46 336 4.0 4.0 0.00 0.00 0.00 39 1016.0
20260506233512 46 3 2.0 2.0 0.00 0.00 0.00 39 1016.0
20260506233010 46 257 4.0 6.0 0.00 0.00 0.00 39 1016.3
20260506232505 46 219 3.0 3.0 0.00 0.00 0.00 38 1016.3
20260506232001 46 302 2.0 3.0 0.00 0.00 0.00 40 1016.3
20260506231459 46 280 1.0 2.0 0.00 0.00 0.00 41 1016.7
20260506230956 46 290 2.0 3.0 0.00 0.00 0.00 38 1016.7
20260506230452 46 245 1.0 2.0 0.00 0.00 0.00 39 1016.7
20260506225949 46 349 3.0 6.0 0.00 0.00 0.00 39 1016.7
20260506225446 46 273 2.0 2.0 0.00 0.00 0.00 39 1016.3
20260506224937 46 304 4.0 6.0 0.00 0.00 0.00 39 1016.7
20260506224435 46 359 2.0 2.0 0.00 0.00 0.00 40 1016.7
20260506223931 46 351 0.0 1.0 0.00 0.00 0.00 40 1016.7
20260506223426 46 261 3.0 4.0 0.00 0.00 0.00 40 1016.7
20260506222924 46 271 4.0 6.0 0.00 0.00 0.00 40 1016.7
20260506222420 46 343 3.0 3.0 0.00 0.00 0.00 38 1016.7
20260506221917 46 279 4.0 7.0 0.00 0.00 0.00 39 1016.7
20260506221414 46 302 3.0 4.0 0.00 0.00 0.00 39 1016.7
20260506220912 46 323 3.0 4.0 0.00 0.00 0.00 40 1016.7
20260506220407 46 297 4.0 4.0 0.00 0.00 0.00 40 1016.7
20260506215904 46 271 2.0 3.0 0.00 0.00 0.00 40 1016.7
20260506215400 46 330 3.0 6.0 0.00 0.00 0.00 39 1016.7
20260506214856 46 310 4.0 7.0 0.00 0.00 0.00 38 1016.7
20260506214353 45 290 5.0 7.0 0.00 0.00 0.00 39 1016.7
20260506213851 45 14 2.0 3.0 0.00 0.00 0.00 40 1016.7
20260506213348 45 310 4.0 6.0 0.00 0.00 0.00 39 1016.7
20260506212845 45 279 5.0 7.0 0.00 0.00 0.00 39 1016.7
20260506212341 45 271 4.0 6.0 0.00 0.00 0.00 40 1016.7
20260506211836 45 314 5.0 7.0 0.00 0.00 0.00 39 1016.7
20260506211332 46 315 4.0 4.0 0.00 0.00 0.00 39 1016.7
20260506210830 46 266 11.0 13.0 0.00 0.00 0.00 38 1016.7
20260506210327 45 303 2.0 2.0 0.00 0.00 0.00 40 1016.7
20260506205824 45 283 4.0 4.0 0.00 0.00 0.00 40 1017.0
20260506205320 45 262 5.0 6.0 0.00 0.00 0.00 39 1016.7
20260506204817 45 200 4.0 4.0 0.00 0.00 0.00 39 1017.0
20260506204314 45 352 2.0 3.0 0.00 0.00 0.00 39 1016.7
20260506203811 45 266 7.0 10.0 0.00 0.00 0.00 38 1016.7
20260506203303 45 274 5.0 7.0 0.00 0.00 0.00 39 1017.0
20260506202800 45 14 3.0 3.0 0.00 0.00 0.00 39 1017.3
20260506202257 45 216 3.0 4.0 0.00 0.00 0.00 40 1017.3
20260506201753 45 257 4.0 7.0 0.00 0.00 0.00 39 1017.0
20260506201250 45 253 4.0 6.0 0.00 0.00 0.00 40 1017.0
20260506200747 45 330 2.0 3.0 0.00 0.00 0.00 40 1017.0
20260506200243 45 328 5.0 7.0 0.00 0.00 0.00 40 1017.3
20260506195740 45 283 2.0 3.0 0.00 0.00 0.00 41 1017.3
20260506195236 45 208 3.0 4.0 0.00 0.00 0.00 40 1017.3
20260506194734 45 317 4.0 6.0 0.00 0.00 0.00 40 1017.3
20260506194230 45 281 4.0 6.0 0.00 0.00 0.00 40 1017.0
20260506193728 45 277 3.0 4.0 0.00 0.00 0.00 40 1017.0
20260506193225 45 287 1.0 1.0 0.00 0.00 0.00 40 1017.0
20260506192721 45 275 3.0 3.0 0.00 0.00 0.00 40 1017.3
20260506192218 45 283 4.0 6.0 0.00 0.00 0.00 40 1017.0
20260506191715 45 322 4.0 4.0 0.00 0.00 0.00 40 1017.3
20260506191211 45 315 4.0 4.0 0.00 0.00 0.00 40 1017.3
20260506190708 45 277 6.0 9.0 0.00 0.00 0.00 40 1017.0
20260506190205 45 259 3.0 4.0 0.00 0.00 0.00 40 1017.3
20260506185702 45 270 4.0 6.0 0.00 0.00 0.00 40 1017.0
20260506185158 45 287 3.0 4.0 0.00 0.00 0.00 39 1017.3
20260506184656 45 264 5.0 8.0 0.00 0.00 0.00 40 1017.0
20260506184153 45 211 4.0 6.0 0.00 0.00 0.00 40 1017.0
20260506183650 45 313 4.0 6.0 0.00 0.00 0.00 39 1017.0
20260506183145 45 297 3.0 4.0 0.00 0.00 0.00 39 1017.0
20260506182643 45 218 2.0 3.0 0.00 0.00 0.00 39 1017.0
20260506182140 45 300 5.0 6.0 0.00 0.00 0.00 39 1017.0
20260506181638 45 339 6.0 7.0 0.00 0.00 0.00 38 1017.0
20260506181135 45 294 6.0 7.0 0.00 0.00 0.00 38 1017.0
20260506180632 45 300 5.0 6.0 0.00 0.00 0.00 39 1016.7
20260506180128 45 309 6.0 8.0 0.00 0.00 0.00 38 1016.7
20260506175624 45 278 4.0 6.0 0.00 0.00 0.00 39 1017.0
20260506175120 45 314 2.0 2.0 0.00 0.00 0.00 39 1017.0
20260506174620 45 281 5.0 6.0 0.00 0.00 0.00 39 1017.0
20260506174116 45 282 2.0 3.0 0.00 0.00 0.00 39 1017.3
20260506173614 45 309 3.0 4.0 0.00 0.00 0.00 39 1016.7
20260506173110 45 222 4.0 6.0 0.00 0.00 0.00 39 1017.0
20260506172608 46 311 6.0 7.0 0.00 0.00 0.00 38 1016.7
20260506172103 46 335 2.0 3.0 0.00 0.00 0.00 38 1017.0
20260506171601 46 277 3.0 4.0 0.00 0.00 0.00 39 1017.0
20260506171059 46 311 5.0 7.0 0.00 0.00 0.00 37 1017.3
20260506170556 46 76 1.0 1.0 0.00 0.00 0.00 38 1017.0
20260506170053 46 334 2.0 2.0 0.00 0.00 0.00 39 1017.0
20260506165552 45 256 3.0 4.0 0.00 0.00 0.00 38 1017.0
20260506165047 45 246 5.0 6.0 0.00 0.00 0.00 37 1016.7
20260506164545 45 96 4.0 6.0 0.00 0.00 0.00 37 1017.0
20260506164042 45 286 3.0 4.0 0.00 0.00 0.00 40 1017.0
20260506163538 45 49 2.0 3.0 0.00 0.00 0.00 38 1016.7
20260506163033 45 302 3.0 4.0 0.00 0.00 0.00 39 1017.0
20260506162530 45 318 4.0 4.0 0.00 0.00 0.00 40 1017.0
20260506162027 45 309 3.0 3.0 0.00 0.00 0.00 39 1017.0
20260506161525 45 236 1.0 2.0 0.00 0.00 0.00 40 1017.0
20260506161022 44 279 6.0 7.0 0.00 0.00 0.00 39 1017.3
20260506160520 44 312 3.0 3.0 0.00 0.00 0.00 40 1017.3
20260506160016 44 295 4.0 6.0 0.00 0.00 0.00 40 1017.3
20260506155514 45 283 6.0 8.0 0.00 0.00 0.00 40 1017.0
20260506153646 45 340 1.0 2.0 0.00 0.00 0.00 42 1017.3
20260506153143 45 354 3.0 3.0 0.00 0.00 0.00 39 1017.0
20260506152640 45 339 4.0 4.0 0.00 0.00 0.00 43 1017.0
20260506152138 44 292 2.0 3.0 0.00 0.00 0.00 41 1016.7
20260506151636 44 277 4.0 6.0 0.00 0.00 0.00 40 1017.0
20260506151133 43 262 4.0 4.0 0.00 0.00 0.00 40 1017.0
20260506150630 43 4 4.0 4.0 0.00 0.00 0.00 40 1017.3
20260506150126 43 14 2.0 3.0 0.00 0.00 0.00 43 1017.8
20260506145624 43 301 2.0 2.0 0.00 0.00 0.00 43 1017.3
20260506145120 43 270 4.0 4.0 0.00 0.00 0.00 44 1017.3
20260506144618 43 314 2.0 2.0 0.00 0.00 0.00 43 1017.8
20260506144114 42 314 2.0 3.0 0.00 0.00 0.00 42 1017.8
20260506143612 42 164 3.0 3.0 0.00 0.00 0.00 44 1017.8
20260506143110 42 25 1.0 1.0 0.00 0.00 0.00 43 1018.1
20260506142608 42 258 2.0 2.0 0.00 0.00 0.00 44 1017.8
20260506142106 42 46 2.0 2.0 0.00 0.00 0.00 44 1017.8
20260506141603 43 314 4.0 6.0 0.00 0.00 0.00 44 1018.1
20260506141102 42 18 3.0 4.0 0.00 0.00 0.00 44 1017.8
20260506140558 42 270 4.0 6.0 0.00 0.00 0.00 45 1017.8
20260506140056 42 14 0.0 0.0 0.00 0.00 0.00 46 1017.8
20260506135552 42 358 1.0 2.0 0.00 0.00 0.00 44 1017.3
20260506135048 41 333 4.0 4.0 0.00 0.00 0.00 45 1017.3
20260506134545 41 286 2.0 2.0 0.00 0.00 0.00 47 1017.3
20260506134041 41 5 1.0 2.0 0.00 0.00 0.00 47 1017.8
20260506133539 40 235 1.0 1.0 0.00 0.00 0.00 48 1017.3
20260506133036 40 357 2.0 3.0 0.00 0.00 0.00 48 1017.8
20260506132533 40 313 5.0 7.0 0.00 0.00 0.00 48 1017.8
20260506132030 39 1 2.0 3.0 0.00 0.00 0.00 48 1017.8
20260506131527 39 37 1.0 2.0 0.00 0.00 0.00 49 1017.8
20260506131023 39 296 3.0 3.0 0.00 0.00 0.00 50 1017.8
20260506130520 38 287 2.0 3.0 0.00 0.00 0.00 52 1017.8
20260506130018 37 296 2.0 3.0 0.00 0.00 0.00 53 1017.8
20260506125516 37 254 5.0 6.0 0.00 0.00 0.00 53 1017.8
20260506125013 36 49 1.0 2.0 0.00 0.00 0.00 54 1017.8
20260506124511 36 49 0.0 1.0 0.00 0.00 0.00 57 1017.3
20260506124009 35 49 0.0 0.0 0.00 0.00 0.00 57 1017.3
20260506123506 35 348 0.0 0.0 0.00 0.00 0.00 57 1017.3
20260506123004 35 346 1.0 1.0 0.00 0.00 0.00 59 1017.8
20260506122501 35 343 0.0 0.0 0.00 0.00 0.00 58 1017.8
20260506121959 34 338 1.0 1.0 0.00 0.00 0.00 59 1017.8
20260506121456 34 27 0.0 1.0 0.00 0.00 0.00 60 1017.3
20260506120952 34 27 1.0 1.0 0.00 0.00 0.00 62 1017.3
20260506120450 34 27 1.0 2.0 0.00 0.00 0.00 62 1017.3
20260506115947 34 27 0.0 0.0 0.00 0.00 0.00 62 1017.3
20260506115445 34 27 0.0 0.0 0.00 0.00 0.00 61 1017.0
20260506114943 34 27 0.0 0.0 0.00 0.00 0.00 61 1017.0
20260506114440 34 27 1.0 1.0 0.00 0.00 0.00 62 1017.0
20260506113939 34 27 0.0 0.0 0.00 0.00 0.00 62 1017.0
20260506113436 34 27 1.0 1.0 0.00 0.00 0.00 62 1017.3
20260506112932 34 27 0.0 0.0 0.00 0.00 0.00 62 1017.0
20260506112431 34 27 1.0 1.0 0.00 0.00 0.00 62 1017.0
20260506111927 34 27 0.0 0.0 0.00 0.00 0.00 62 1017.0
20260506111425 34 27 1.0 1.0 0.00 0.00 0.00 62 1017.0
20260506110922 34 27 1.0 1.0 0.00 0.00 0.00 61 1017.0
20260506110420 34 27 1.0 1.0 0.00 0.00 0.00 61 1016.7
20260506105916 34 27 0.0 1.0 0.00 0.00 0.00 61 1016.7
20260506105413 34 27 1.0 1.0 0.00 0.00 0.00 61 1016.7
20260506104910 34 27 1.0 1.0 0.00 0.00 0.00 61 1016.3
20260506104408 34 27 1.0 1.0 0.00 0.00 0.00 61 1016.3
20260506103905 34 27 1.0 1.0 0.00 0.00 0.00 61 1016.3
20260506103402 35 27 1.0 1.0 0.00 0.00 0.00 61 1016.3
20260506102900 35 27 1.0 1.0 0.00 0.00 0.00 61 1016.0
20260506102358 35 27 1.0 1.0 0.00 0.00 0.00 61 1016.3
20260506101854 35 27 0.0 0.0 0.00 0.00 0.00 61 1016.0
20260506101351 35 27 0.0 1.0 0.00 0.00 0.00 61 1016.0
20260506100848 35 27 1.0 1.0 0.00 0.00 0.00 61 1016.0
20260506100347 35 27 0.0 0.0 0.00 0.00 0.00 61 1016.3
20260506095845 35 27 1.0 1.0 0.00 0.00 0.00 60 1016.0
20260506095342 35 27 1.0 1.0 0.00 0.00 0.00 60 1016.0
20260506094838 36 27 1.0 1.0 0.00 0.00 0.00 59 1016.0
20260506094338 36 28 1.0 1.0 0.00 0.00 0.00 59 1016.0
20260506093835 36 27 1.0 1.0 0.00 0.00 0.00 59 1015.6
20260506093332 36 27 1.0 1.0 0.00 0.00 0.00 59 1015.6
20260506092830 36 28 0.0 0.0 0.00 0.00 0.00 59 1015.6
20260506092327 36 27 0.0 0.0 0.00 0.00 0.00 59 1015.6
20260506091818 37 28 0.0 0.0 0.00 0.00 0.00 59 1015.3
20260506091316 37 28 0.0 0.0 0.00 0.00 0.00 58 1015.6
20260506090814 37 28 0.0 0.0 0.00 0.00 0.00 58 1015.6
20260506090310 37 28 0.0 1.0 0.00 0.00 0.00 57 1015.3
20260506085807 37 28 0.0 0.0 0.00 0.00 0.00 57 1015.3
20260506085305 37 28 0.0 0.0 0.00 0.00 0.00 57 1015.3
20260506084800 37 342 1.0 1.0 0.00 0.00 0.00 56 1015.3
20260506084256 37 336 1.0 1.0 0.00 0.00 0.00 57 1015.3
20260506083754 38 350 0.0 1.0 0.00 0.00 0.00 56 1015.0
20260506083251 38 351 1.0 1.0 0.00 0.00 0.00 56 1015.0
20260506082748 38 349 1.0 1.0 0.00 0.00 0.00 56 1015.0
20260506082244 38 355 0.0 0.0 0.00 0.00 0.00 56 1015.0
20260506081742 38 356 0.0 0.0 0.00 0.00 0.00 55 1015.0
20260506081239 38 2 0.0 1.0 0.00 0.00 0.00 54 1014.6
20260506080737 38 350 0.0 1.0 0.00 0.00 0.00 54 1015.0
20260506080233 39 350 0.0 0.0 0.00 0.00 0.00 54 1015.0
20260506073217 39 354 0.0 0.0 0.00 0.00 0.00 53 1014.6
20260506072714 39 355 0.0 0.0 0.00 0.00 0.00 53 1014.6
20260506072212 39 320 0.0 0.0 0.00 0.00 0.00 53 1014.6
20260506071709 39 357 0.0 0.0 0.00 0.00 0.00 54 1014.6
20260506071207 39 357 0.0 1.0 0.00 0.00 0.00 53 1014.3
20260506070703 39 350 0.0 1.0 0.00 0.00 0.00 53 1014.6
20260506070201 39 347 0.0 1.0 0.00 0.00 0.00 53 1013.9
20260506062137 40 35 0.0 0.0 0.00 0.00 0.00 54 1013.6
20260506061633 41 35 0.0 0.0 0.00 0.00 0.00 53 1013.9
20260506061131 41 308 0.0 0.0 0.00 0.00 0.00 53 1013.9
20260506060629 41 344 0.0 0.0 0.00 0.00 0.00 52 1013.9
20260506060126 41 332 0.0 0.0 0.00 0.00 0.00 50 1013.9
20260506051058 42 357 0.0 0.0 0.00 0.00 0.00 49 1013.2
20260506050556 43 351 1.0 1.0 0.00 0.00 0.00 49 1013.2
20260506045046 43 347 0.0 0.0 0.00 0.01 0.01 47 1013.2
20260506044544 44 326 0.0 0.0 0.00 0.01 0.01 47 1012.8
20260506044041 44 325 0.0 0.0 0.00 0.01 0.01 47 1013.2
20260506043538 44 287 1.0 1.0 0.00 0.01 0.01 48 1013.2
20260506043036 44 317 1.0 1.0 0.00 0.01 0.01 49 1012.8
20260506042535 44 333 0.0 1.0 0.00 0.01 0.01 49 1012.8
20260506042033 45 280 1.0 1.0 0.00 0.01 0.01 44 1012.8
20260506041531 45 274 1.0 1.0 0.00 0.01 0.01 44 1012.8
20260506041027 45 281 1.0 1.0 0.00 0.01 0.01 45 1012.8
20260506040525 45 282 1.0 1.0 0.00 0.01 0.01 44 1012.8
20260506040021 46 297 0.0 1.0 0.00 0.01 0.01 47 1012.8
20260506035518 46 283 1.0 2.0 0.00 0.01 0.01 45 1012.8
20260506035015 46 263 1.0 1.0 0.00 0.01 0.01 46 1012.8
20260506034513 46 264 0.0 0.0 0.00 0.01 0.01 48 1012.5
20260506034009 47 314 1.0 1.0 0.00 0.01 0.01 40 1012.5
20260506033507 47 299 1.0 1.0 0.00 0.01 0.01 41 1012.5
20260506033004 47 337 0.0 1.0 0.00 0.01 0.01 41 1012.5
20260506032501 47 298 1.0 2.0 0.00 0.01 0.01 39 1012.5
20260506031957 47 279 1.0 1.0 0.00 0.01 0.01 40 1012.5
20260506031455 48 350 0.0 0.0 0.00 0.01 0.01 41 1012.5
20260506030952 48 291 1.0 2.0 0.00 0.01 0.01 40 1012.2
20260506030450 48 337 0.0 1.0 0.00 0.01 0.01 40 1012.5
20260506025946 48 332 1.0 1.0 0.00 0.01 0.01 39 1012.2
20260506025443 48 290 2.0 2.0 0.00 0.01 0.01 38 1012.5
20260506024940 48 301 1.0 1.0 0.00 0.01 0.01 38 1012.2
20260506024437 48 246 2.0 2.0 0.00 0.01 0.01 38 1012.2
20260506023932 48 283 0.0 1.0 0.00 0.01 0.01 38 1012.2
20260506023429 48 294 0.0 1.0 0.00 0.01 0.01 38 1012.2
20260506022926 48 341 0.0 0.0 0.00 0.01 0.01 39 1012.2
20260506022424 48 358 0.0 1.0 0.00 0.01 0.01 38 1012.2
20260506021922 48 290 4.0 4.0 0.00 0.01 0.01 38 1011.8
20260506021419 48 272 1.0 2.0 0.00 0.01 0.01 39 1011.8